Location: Wavehorne
(51.0500°N, 0.8333°E)
Time: 21:33:49
(UTC+00:00)

NOSS 2-2 (C) - Pass Details

Date: 27 October 2021
Orbit: 450 x 1756 km, 63.3° (Epoch: 26 November)

Event Time Altitude Azimuth Distance (km) Brightness Sun altitude
Rises 19:07:07 0° 212° (SSW) 2,467 7.0 -23.7°
Reaches altitude 10° 19:09:11 10° 208° (SSW) 1,579 5.9 -24.0°
Enters shadow 19:09:55 16° 206° (SSW) 1,276 5.3 -24.1°
